• In Hungary
  • List of Countries
  • For 7 days
  • Water Temperature
  • Satellite Maps
  • Weather Map
  • News
  • Weather Widgets
  • user-avatar
    Login

    Hourly Weather Zaluzhnyy

    Today, 20 August, Monday

    Time Temperature Precipitation Wind Pressure Humidity
    00:00 +18°C° 0 mm 3 mps 757 mmHg 39%
    01:00 +18°C° 0 mm 3 mps 757 mmHg 41%
    02:00 +17°C° 0 mm 3 mps 757 mmHg 42%
    03:00 +17°C° 0 mm 2 mps 757 mmHg 44%
    04:00 +16°C° 0 mm 2 mps 757 mmHg 46%
    05:00 +16°C° 0 mm 2 mps 757 mmHg 47%
    06:00 +16°C° 0 mm 2 mps 757 mmHg 49%
    07:00 +19°C° 0 mm 3 mps 757 mmHg 43%
    08:00 +21°C° 0 mm 3 mps 757 mmHg 37%
    09:00 +25°C° 0 mm 4 mps 757 mmHg 32%
    10:00 +26°C° 0 mm 4 mps 757 mmHg 29%
    11:00 +27°C° 0 mm 5 mps 757 mmHg 26%
    12:00 +29°C° 0 mm 5 mps 757 mmHg 23%
    13:00 +29°C° 0 mm 5 mps 756 mmHg 22%
    14:00 +30°C° 0 mm 5 mps 756 mmHg 21%
    15:00 +30°C° 0 mm 5 mps 755 mmHg 20%
    16:00 +30°C° 0 mm 5 mps 755 mmHg 22%
    17:00 +29°C° 0 mm 4 mps 755 mmHg 23%
    18:00 +29°C° 0 mm 4 mps 755 mmHg 24%
    19:00 +27°C° 0 mm 4 mps 755 mmHg 27%
    20:00 +25°C° 0 mm 3 mps 755 mmHg 31%
    21:00 +22°C° 0 mm 3 mps 755 mmHg 34%
    22:00 +21°C° 0 mm 3 mps 755 mmHg 36%
    23:00 +20°C° 0 mm 3 mps 755 mmHg 37%

    Tomorrow, 21 August, Tuesday

    Time Temperature Precipitation Wind Pressure Humidity
    00:00 +20°C° 0 mm 2 mps 755 mmHg 38%
    01:00 +19°C° 0 mm 2 mps 755 mmHg 38%
    02:00 +19°C° 0 mm 2 mps 754 mmHg 38%
    03:00 +18°C° 0 mm 2 mps 754 mmHg 38%
    04:00 +18°C° 0 mm 2 mps 754 mmHg 39%
    05:00 +18°C° 0 mm 2 mps 754 mmHg 39%
    06:00 +17°C° 0 mm 2 mps 754 mmHg 39%
    07:00 +20°C° 0 mm 2 mps 755 mmHg 35%
    08:00 +24°C° 0 mm 3 mps 755 mmHg 32%
    09:00 +27°C° 0 mm 3 mps 755 mmHg 28%
    10:00 +28°C° 0 mm 3 mps 754 mmHg 25%
    11:00 +30°C° 0 mm 4 mps 754 mmHg 23%
    12:00 +32°C° 0 mm 4 mps 754 mmHg 21%
    13:00 +33°C° 0 mm 4 mps 753 mmHg 20%
    14:00 +33°C° 0 mm 4 mps 753 mmHg 19%
    15:00 +34°C° 0 mm 4 mps 753 mmHg 18%
    16:00 +34°C° 0 mm 3 mps 752 mmHg 18%
    17:00 +33°C° 0 mm 3 mps 752 mmHg 19%
    18:00 +33°C° 0 mm 3 mps 752 mmHg 20%
    19:00 +29°C° 0 mm 2 mps 752 mmHg 23%
    20:00 +27°C° 0 mm 2 mps 752 mmHg 26%
    21:00 +25°C° 0 mm 2 mps 752 mmHg 28%
    22:00 +24°C° 0 mm 1 mps 752 mmHg 30%
    23:00 +23°C° 0 mm 1 mps 752 mmHg 31%

    Day after tomorrow, 22 August, Wednesday

    Time Temperature Precipitation Wind Pressure Humidity
    00:00 +23°C° 0 mm 1 mps 752 mmHg 32%
    01:00 +22°C° 0 mm 1 mps 752 mmHg 33%
    02:00 +22°C° 0 mm 1 mps 752 mmHg 34%
    03:00 +22°C° 0 mm 1 mps 752 mmHg 36%
    04:00 +21°C° 0 mm 1 mps 752 mmHg 38%
    05:00 +21°C° 0 mm 1 mps 752 mmHg 40%
    06:00 +21°C° 0 mm 1 mps 752 mmHg 43%
    07:00 +24°C° 0 mm 1 mps 752 mmHg 39%
    08:00 +26°C° 0 mm 1 mps 753 mmHg 35%
    09:00 +29°C° 0 mm 2 mps 753 mmHg 32%
    10:00 +30°C° 0 mm 1 mps 753 mmHg 28%
    11:00 +32°C° 0 mm 1 mps 753 mmHg 24%
    12:00 +33°C° 0 mm 1 mps 752 mmHg 21%
    13:00 +35°C° 0 mm 2 mps 752 mmHg 20%
    14:00 +35°C° 0 mm 2 mps 752 mmHg 18%
    15:00 +36°C° 0 mm 2 mps 752 mmHg 17%
    16:00 +35°C° 0 mm 3 mps 752 mmHg 21%
    17:00 +34°C° 0 mm 4 mps 752 mmHg 24%
    18:00 +33°C° 0 mm 5 mps 752 mmHg 28%
    19:00 +30°C° 0 mm 5 mps 753 mmHg 37%
    20:00 +28°C° 0 mm 6 mps 753 mmHg 46%
    21:00 +26°C° 0 mm 6 mps 754 mmHg 54%
    22:00 +24°C° 0 mm 6 mps 754 mmHg 53%
    23:00 +23°C° 0 mm 6 mps 754 mmHg 52%

    23 August, Thursday

    Time Temperature Precipitation Wind Pressure Humidity
    00:00 +22°C° 0 mm 6 mps 755 mmHg 50%
    01:00 +22°C° 0 mm 5 mps 755 mmHg 49%
    02:00 +21°C° 0 mm 5 mps 755 mmHg 48%
    03:00 +21°C° 0 mm 5 mps 755 mmHg 46%
    04:00 +20°C° 0 mm 5 mps 756 mmHg 46%
    05:00 +20°C° 0 mm 5 mps 756 mmHg 45%
    06:00 +19°C° 0 mm 5 mps 756 mmHg 45%
    07:00 +21°C° 0 mm 6 mps 756 mmHg 41%
    08:00 +22°C° 0 mm 6 mps 756 mmHg 37%
    09:00 +24°C° 0 mm 6 mps 757 mmHg 33%
    10:00 +26°C° 0 mm 6 mps 756 mmHg 30%
    11:00 +27°C° 0 mm 6 mps 756 mmHg 28%
    12:00 +29°C° 0 mm 6 mps 756 mmHg 25%
    13:00 +29°C° 0 mm 6 mps 756 mmHg 24%
    14:00 +30°C° 0 mm 6 mps 756 mmHg 23%
    15:00 +30°C° 0 mm 6 mps 755 mmHg 22%
    16:00 +30°C° 0 mm 6 mps 755 mmHg 23%
    17:00 +29°C° 0 mm 5 mps 755 mmHg 23%
    18:00 +29°C° 0 mm 5 mps 755 mmHg 23%
    19:00 +27°C° 0 mm 5 mps 756 mmHg 25%
    20:00 +25°C° 0 mm 5 mps 756 mmHg 27%
    21:00 +23°C° 0 mm 4 mps 756 mmHg 28%
    22:00 +22°C° 0 mm 5 mps 756 mmHg 29%
    23:00 +21°C° 0 mm 5 mps 756 mmHg 30%

    24 August, Friday

    Time Temperature Precipitation Wind Pressure Humidity
    00:00 +21°C° 0 mm 5 mps 756 mmHg 31%
    01:00 +20°C° 0 mm 5 mps 756 mmHg 33%
    02:00 +20°C° 0 mm 5 mps 756 mmHg 34%
    03:00 +19°C° 0 mm 5 mps 756 mmHg 36%
    04:00 +19°C° 0 mm 5 mps 756 mmHg 37%
    05:00 +19°C° 0 mm 5 mps 756 mmHg 38%
    06:00 +17°C° 0 mm 5 mps 756 mmHg 40%
    07:00 +21°C° 0 mm 5 mps 756 mmHg 35%
    08:00 +23°C° 0 mm 6 mps 756 mmHg 31%
    09:00 +26°C° 0 mm 6 mps 756 mmHg 27%
    10:00 +28°C° 0 mm 6 mps 756 mmHg 25%
    11:00 +30°C° 0 mm 6 mps 755 mmHg 23%
    12:00 +32°C° 0 mm 6 mps 755 mmHg 22%
    13:00 +33°C° 0 mm 6 mps 755 mmHg 21%
    14:00 +33°C° 0 mm 6 mps 755 mmHg 21%
    15:00 +34°C° 0 mm 6 mps 754 mmHg 20%
    16:00 +33°C° 0 mm 6 mps 754 mmHg 21%
    17:00 +32°C° 0 mm 6 mps 754 mmHg 22%
    18:00 +32°C° 0 mm 6 mps 754 mmHg 23%
    19:00 +29°C° 0 mm 6 mps 754 mmHg 25%
    20:00 +27°C° 0 mm 5 mps 754 mmHg 27%
    21:00 +25°C° 0 mm 5 mps 755 mmHg 29%
    22:00 +23°C° 0 mm 5 mps 755 mmHg 29%
    23:00 +22°C° 0 mm 5 mps 755 mmHg 29%

    25 August, Saturday

    Time Temperature Precipitation Wind Pressure Humidity
    00:00 +22°C° 0 mm 5 mps 755 mmHg 29%
    01:00 +21°C° 0 mm 5 mps 754 mmHg 30%
    02:00 +20°C° 0 mm 4 mps 754 mmHg 31%
    03:00 +20°C° 0 mm 4 mps 754 mmHg 32%
    04:00 +19°C° 0 mm 4 mps 754 mmHg 33%
    05:00 +19°C° 0 mm 4 mps 755 mmHg 34%
    06:00 +19°C° 0 mm 4 mps 755 mmHg 35%
    07:00 +21°C° 0 mm 5 mps 755 mmHg 31%
    08:00 +23°C° 0 mm 5 mps 755 mmHg 27%
    09:00 +27°C° 0 mm 6 mps 755 mmHg 24%
    10:00 +28°C° 0 mm 6 mps 754 mmHg 22%
    11:00 +30°C° 0 mm 6 mps 754 mmHg 20%
    12:00 +32°C° 0 mm 6 mps 754 mmHg 18%
    13:00 +32°C° 0 mm 6 mps 753 mmHg 17%
    14:00 +33°C° 0 mm 6 mps 753 mmHg 17%
    15:00 +33°C° 0 mm 6 mps 753 mmHg 16%
    16:00 +32°C° 0 mm 6 mps 753 mmHg 16%
    17:00 +32°C° 0 mm 5 mps 752 mmHg 17%
    18:00 +30°C° 0 mm 5 mps 752 mmHg 17%
    19:00 +28°C° 0 mm 5 mps 752 mmHg 19%
    20:00 +26°C° 0 mm 4 mps 752 mmHg 21%
    21:00 +23°C° 0 mm 4 mps 752 mmHg 23%
    22:00 +22°C° 0 mm 4 mps 752 mmHg 23%
    23:00 +22°C° 0 mm 4 mps 752 mmHg 24%
    Show more